Probability
0 0 0 0 0 0 0 0 0 0 0 0 0 0 0 0 0 0 0 0 0 0 0 0 0 0 0 0 0 0 0 0 0 0 0 0 0 0 0 0 0 0 0 0
0 0 0 0 0 0 0 0 0 0 0 0 0 0 0 0 0 0 0 0 0 0 0 0 0 0 0 0 0 0 0 0 0 0 0 0 0 0 0 0 0 0 0 0
0 0 0 0 0 0 0 0 0 0 0 0 0 0 0 0 0 0 0 0 0 0 0 0 0 0 0 0 0 0 0 0 0 0 0 0 0 0 0 0 0 0 0 0
0 0 0 0 0 0 0 0 0 0 0 0 0 0 0 0 0 0 0 0 0 0 0 0 0 0 0 0 0 0 0 0 0 0 0 0 0 0 0 0 0 0 0 0
0 0 0 0 0 0 0 0 0 0 0 0 0 0 0 0 0 0 0 0 0 0 0 0 0 0 0 0 0 0 0 0 0 0 0 0 0 0 0 0 0 0 0 0
0 0 0 0 0 0 0 0 0 0 0 0 0 0 0 0 0 0 0 0 0 0 0 0 0 0 0 0 0 0 0 0 0 0 0 0 0 0 0 0 0 0 0 0
0 0 0 0 0 0 0 0 0 0 0 0 0 0 0 0 0 0 0 0 0 0 0 0 0 0 0 0 0 0 0 0 0 0 0 0 0 0 0 0 0 0 0 0
0 0 0 0 0 0 0 0 0 0 0 0 0 0 0 0 0 0 0 0 0 0 0 0 0 0 0 0 0 0 0 0 0 0 0 0 0 0 0 0 0 0 0 0
0 0 0 0 0 0 0 0 0 0 0 0 0 0 0 0 0 0 0 0 0 0 0 0 0 0 0 0 0 0 0 0 0 0 0 0 0 0 0 0 0 0 0 0
0 0 0 0 0 0 0 0 0 0 0 0 0 0 0 0 0 0 0 0 0 0 0 0 0 0 0 0 0 0 0 0 0 0 0 0 0 0 0 0 0 0 0 0
0 0 0 0 0 0 0 0 0 0 0 0 0 0 0 0 0 0 0 0 0 0 0 0 0 0 0 0 0 0 0 0 0 0 0 0 0 0 0 0 0 0 0 0
0 0 0 0 0 0 0 0 0 0 0 0 0 0 0 0 0 0 0 0 0 0 0 0 0 0 0 0 0 0 0 0 0 0 0 0 0 0 0 0 0 0 0 0
0 0 0 0 0 0 0 0 0 0 0 0 0 0 0 0 0 0 0 0 0 0 0 0 0 0 0 0 0 0 0 0 0 0 0 0 0 0 0 0 0 0 0 0
0 0 0 0 0 0 0 0 0 0 0 0 0 0 0 0 0 0 0 0 0 0 0 0 0 0 0 0 0 0 0 0 0 0 0 0 0 0 0 0 0 0 0 0
0 0 0 0 0 0 0 0 0 0 0 0 0 0 0 0 0 0 0 0 0 0 0 0 0 0 0 0 0 0 0 0 0 0 0 0 0 0 0 0 0 0 0 0
0 0 0 0 0 0 0 0 0 0 0 0 0 0 0 0 0 0 0 0 0 0 0 0 0 0 0 0 0 0 0 0 0 0 0 0 0 0 0 0 0 0 0 0
0 0 0 0 0 0 0 0 0 0 0 0 0 0 0 0 0 0 0 0 0 0 0 0 0 0 0 0 0 0 0 0 0 0 0 0 0 0 0 0 0 0 0 0
0 0 0 0 0 0 0 0 0 0 0 0 0 0 0 0 0 0 0 0 0 0 0 0 0 0 0 0 0 0 0 0 0 0 0 0 0 0 0 0 0 0 0 0
0 0 0 0 0 0 0 0 0 0 0 0 0 0 0 0 0 0 0 0 0 0 0 0 0 0 0 0 0 0 0 0 0 0 0 0 0 0 0 0 0 0 0 0
0 0 0 0 0 0 0 0 0 0 0 0 0 0 0 0 0 0 0 0 0 0 0 0 0 0 0 0 0 0 0 0 0 0 0 0 0 0 0 0 0 0 0 0
0 0 0 0 0 0 0 0 0 0 0 0 0 0 0 0 0 0 0 0 0 0 0 0 0 0 0 0 0 0 0 0 0 0 0 0 0 0 0 0 0 0 0 0
0 0 0 0 0 0 0 0 0 0 0 0 0 0 0 0 0 0 0 0 0 0 0 0 0 0 0 0 0 0 0 0 0 0 0 0 0 0 0 0 0 0 0 0
0 0 0 0 0 0 0 0 0 0 0 0 0 0 0 0 0 0 0 0 0 0 0 0 0 0 0 0 0 0 0 0 0 0 0 0 0 0 0 0 0 0 0 0
0 0 0 0 0 0 0 0 0 0 0 0 0 0 0 0 0 0 0 0 0 0 0 0 0 0 0 0 0 0 0 0 0 0 0 0 0 0 0 0 0 0 0 0
0 0 0 0 0 0 0 0 0 0 0 0 0 0 0 0 0 0 0 0 0 0 0 0 0 0 0 0 0 0 0 0 0 0 0 0 0 0 0 0 0 0 0 0
0 0 0 0 0 0 0 0 0 0 0 0 0 0 0 0 0 0 0 0 0 0 0 0 0 0 0 0 0 0 0 0 0 0 0 0 0 0 0 0 0 0 0 0
0 0 0 0 0 0 0 0 0 0 0 0 0 0 0 0 0 0 0 0 0 0 0 0 0 0 0 0 0 0 0 0 0 0 0 0 0 0 0 0 0 0 0 0
Wind_Speed
8 7 4 6 7 7 9 10 11 11 11 15 12 8 7 7 6 6 6 4 3 3 2 2 2 0 1 2 1 1 1 2 3 3 3 4 4 5 5 5 5 5 5 5
5 6 6 7 11 9 10 8 9 8 12 14 8 5 6 7 7 7 6 4 4 4 4 4 4 3 3 2 1 1 2 1 2 3 3 4 4 5 6 6 5 5 5 5
5 4 2 8 11 8 7 8 9 11 14 7 5 8 8 8 8 8 7 6 5 5 5 6 5 5 4 2 0 2 3 3 3 4 4 4 5 6 6 5 4 4 4 4
2 1 7 12 5 6 7 9 10 9 8 7 9 6 7 7 8 8 7 7 6 5 5 4 4 3 3 2 2 2 3 3 4 4 5 5 6 6 5 4 4 3 3 4
3 4 9 9 7 7 7 10 8 10 11 7 2 2 7 8 9 10 8 7 6 6 5 4 4 3 3 2 2 3 3 4 4 5 5 5 5 5 4 4 4 4 4 5
4 4 8 12 7 3 4 7 8 8 10 6 5 2 9 6 6 8 7 6 6 5 4 4 4 3 4 4 3 4 4 4 4 4 5 5 5 4 3 4 6 6 6 6
5 7 11 9 4 4 4 10 4 5 9 7 10 12 7 2 3 5 7 7 6 6 5 5 4 5 5 5 5 4 4 4 4 4 4 4 4 3 5 6 7 7 8 7
3 4 10 5 2 6 9 5 5 6 8 10 12 11 7 5 4 5 7 7 7 7 6 5 5 6 5 5 4 4 5 5 5 4 3 4 5 5 5 7 8 7 7 7
8 10 10 5 7 8 6 7 9 8 10 10 11 12 9 7 7 8 8 8 7 7 6 5 5 6 7 5 5 5 5 5 4 4 4 4 5 6 6 5 6 5 5 5
7 11 11 12 10 10 11 11 12 11 10 9 12 13 10 8 7 8 9 9 8 8 7 6 6 7 6 5 6 6 6 5 4 4 4 3 4 5 6 6 6 6 5 5
9 12 10 11 12 13 14 12 11 11 10 10 11 13 11 9 9 10 10 9 8 9 10 9 8 7 7 7 8 7 6 6 5 4 4 4 3 2 4 4 6 7 5 5
8 12 11 13 13 12 13 14 14 13 13 11 11 14 12 11 10 11 11 10 9 10 10 9 8 8 8 9 9 9 7 6 5 4 4 4 5 5 6 4 7 8 8 6
10 16 16 17 16 15 14 15 16 14 14 14 12 13 13 11 11 11 11 12 13 13 12 10 9 9 9 10 10 10 8 8 6 6 6 6 5 6 5 5 6 6 8 7
11 11 10 13 15 16 14 14 13 12 12 13 12 10 10 11 10 12 14 15 14 12 11 11 11 11 11 11 11 10 9 10 9 6 6 6 6 5 6 6 5 2 3 5
12 10 8 10 13 16 16 15 14 13 13 12 9 8 10 12 14 16 15 13 11 11 11 11 12 11 11 12 12 11 9 7 7 6 6 6 6 5 5 6 5 4 2 2
15 12 11 12 13 13 15 17 17 17 17 15 12 9 10 13 13 12 12 13 13 14 14 13 13 11 12 13 12 10 8 12 10 7 6 6 6 6 6 6 6 5 5 5
16 16 14 14 13 11 9 10 11 13 15 17 18 15 9 9 9 9 11 14 15 15 14 14 13 11 13 14 13 9 9 10 13 8 7 7 7 7 7 7 7 7 7 7
13 14 14 14 13 12 11 9 7 8 10 12 15 16 11 7 9 10 10 10 10 9 11 13 13 12 13 14 12 9 9 9 9 9 8 8 7 8 8 8 9 10 8 7
14 15 16 16 14 12 11 10 8 7 7 8 10 11 12 10 7 7 5 8 11 13 13 13 16 15 14 15 14 10 10 10 9 9 8 9 8 7 7 8 9 9 9 7
14 15 16 16 16 14 13 12 11 10 8 7 7 6 8 10 10 7 5 9 12 13 11 14 16 15 15 16 17 11 12 12 11 10 9 8 8 8 8 9 9 9 8 8
15 16 18 18 17 17 16 14 13 13 11 9 8 6 6 8 10 8 5 7 10 10 9 15 14 13 14 14 18 12 13 12 12 11 10 10 9 9 9 9 9 9 9 9
12 13 16 17 18 19 17 14 14 14 13 11 10 9 7 7 8 9 8 8 8 9 9 10 12 15 16 17 14 14 14 14 12 11 11 10 10 10 10 10 10 10 9 9
11 12 14 15 17 18 18 16 15 13 13 12 11 10 10 9 7 7 10 8 7 9 9 10 14 19 21 17 13 15 15 15 14 12 12 12 11 11 11 11 10 10 10 10
12 13 14 15 16 16 17 16 14 11 11 11 11 11 11 9 9 9 10 11 12 12 8 10 17 20 22 15 13 14 15 15 14 13 12 12 11 11 11 10 10 10 10 11
13 14 15 16 16 14 14 15 14 13 11 10 11 11 10 9 10 9 9 10 12 12 9 10 16 19 17 14 15 15 15 14 14 13 12 11 11 11 11 10 10 10 10 10
13 12 12 13 13 13 12 11 11 11 10 11 11 10 9 8 9 8 8 9 11 11 9 7 8 12 12 13 15 16 15 15 15 14 13 12 13 12 11 11 12 10 10 10
14 12 11 12 11 11 11 11 12 12 11 11 12 11 10 8 7 7 8 7 7 8 7 7 7 8 10 12 14 15 14 13 13 12 12 11 11 10 11 12 10 10 9 9
Wind_Direction
240 246 228 238 235 197 198 205 211 235 240 259 264 263 266 269 278 284 283 268 226 181 160 131 114 102 282 286 321 65 121 162 173 163 143 128 116 109 101 91 83 74 62 46
270 260 239 255 257 237 225 226 229 248 262 256 259 254 258 261 264 267 262 242 213 184 173 174 180 199 223 244 291 79 99 106 130 135 130 121 115 113 106 97 88 77 63 57
261 281 325 269 247 231 223 220 202 224 244 261 257 249 245 247 242 242 241 228 214 204 197 195 195 195 203 212 184 91 91 94 104 113 108 102 109 112 112 107 99 88 72 71
229 169 230 241 234 201 221 246 222 232 251 238 234 250 242 226 224 234 227 221 214 205 198 196 193 196 205 201 175 132 114 113 115 114 109 107 110 114 115 112 108 93 77 81
162 225 263 281 257 203 204 261 238 226 248 247 227 316 285 236 213 220 214 208 204 197 189 186 196 200 195 204 191 165 150 141 136 130 124 120 120 123 123 121 106 88 76 78
167 215 251 248 253 178 142 268 259 215 239 231 139 283 274 263 213 218 205 191 187 179 171 186 205 187 187 200 192 189 176 158 145 140 137 135 132 124 116 116 110 101 82 70
215 232 262 262 277 135 183 243 272 223 232 211 198 222 231 214 200 205 193 186 174 168 179 201 195 178 191 196 201 191 153 137 133 135 140 138 127 119 123 118 110 102 92 76
218 233 263 272 151 193 228 262 286 266 244 228 230 243 242 232 226 202 190 181 170 171 192 204 189 180 191 202 193 153 139 135 131 132 139 136 127 122 125 125 118 113 103 89
206 227 248 256 229 240 243 262 268 264 257 240 239 245 240 229 219 205 195 187 177 176 185 198 191 184 193 198 162 146 141 142 136 124 115 129 137 137 133 133 131 128 121 115
267 270 269 271 265 266 263 254 255 254 256 244 237 243 236 222 208 201 196 190 180 172 182 199 198 195 197 175 159 151 153 151 143 134 124 122 136 149 151 153 147 144 142 137
260 274 287 281 271 266 273 272 263 260 253 242 237 241 228 214 204 201 197 189 181 184 192 200 195 195 188 172 162 159 158 154 149 146 141 129 116 128 158 164 166 160 162 157
278 284 283 278 273 274 275 274 271 267 267 256 231 235 224 212 204 196 194 187 187 194 199 200 193 194 186 177 170 163 162 161 158 151 144 138 127 96 63 118 150 156 160 155
291 300 294 292 296 296 286 280 277 269 259 259 248 230 218 209 200 193 191 189 195 200 201 198 194 195 188 180 176 172 170 167 162 158 154 154 152 142 127 86 106 141 160 165
329 333 330 336 334 334 326 310 298 286 272 260 255 234 214 205 192 191 196 199 199 196 195 193 194 198 187 178 179 179 171 172 168 168 165 164 165 161 156 155 157 163 190 201
346 353 341 341 355 1 358 354 347 334 319 301 278 239 212 203 200 202 202 194 185 188 193 191 196 199 179 176 180 179 174 173 173 171 171 171 169 167 170 172 174 175 182 218
329 330 336 346 353 357 3 7 2 352 345 335 320 281 233 216 213 205 193 181 179 194 196 192 197 195 177 177 179 178 181 185 177 176 176 175 176 179 183 188 192 196 205 211
335 335 332 329 328 330 339 347 349 347 344 341 334 318 275 232 218 207 196 193 195 198 193 191 195 186 177 179 179 180 182 188 187 183 186 186 186 192 194 196 202 211 221 217
324 318 309 304 302 304 308 313 319 329 333 329 330 334 321 260 224 217 208 197 195 198 197 193 186 179 180 182 182 182 182 185 188 192 193 193 194 196 196 201 208 215 226 225
306 303 303 303 300 295 290 286 281 280 289 303 317 330 335 329 292 256 218 190 195 207 209 194 183 181 185 187 183 184 185 187 190 196 199 198 197 195 196 202 210 215 219 216
299 302 303 304 305 301 293 287 277 269 262 261 279 306 323 327 327 309 242 214 216 220 205 186 186 190 191 190 188 190 192 194 196 199 201 200 201 201 202 206 210 213 214 214
302 306 308 308 307 304 299 292 284 273 263 250 250 263 283 301 307 305 277 247 238 224 203 183 188 195 195 191 191 195 197 199 201 201 201 203 204 206 207 209 211 213 214 216
298 301 304 305 304 301 298 293 285 278 271 261 252 248 252 266 281 288 275 259 256 228 208 196 197 198 196 191 194 198 202 205 206 206 205 204 205 207 210 212 215 217 217 218
290 293 295 296 296 295 293 290 284 280 275 270 264 258 253 250 248 258 272 266 255 236 219 209 204 197 192 193 197 199 203 205 207 207 207 206 206 207 209 212 215 216 216 218
292 296 296 296 296 295 292 289 286 282 279 278 273 266 262 262 257 248 252 261 258 250 235 223 212 200 192 200 201 202 204 205 206 207 207 207 207 207 208 209 211 213 214 216
293 297 301 303 302 298 293 290 289 286 282 282 280 275 268 260 255 254 252 253 251 247 240 231 219 209 204 206 204 205 206 205 204 203 202 202 204 205 207 208 209 212 213 215
289 291 292 292 292 292 291 288 285 283 282 283 283 279 272 263 254 250 251 249 246 241 235 230 222 215 215 212 209 207 206 204 201 202 201 199 202 202 205 208 210 213 215 216
292 291 290 290 289 287 286 284 281 279 275 274 277 277 272 264 257 250 247 247 244 240 235 233 231 222 218 216 214 209 205 200 196 196 197 198 199 202 205 205 208 212 214 214